www.pogodaiklimat.ru

Погода и климат >> Архив погоды >> Россия >> Приморский край >> Гамов


ПОГОДА в Гамове

  • Прогноз погоды в Гамове
  • Монитор погоды в Гамове

АРХИВ ПОГОДЫ в Гамове

Время (UTC), дата Ветер
(напр.,м/с)
 
Видим.   Явления Облачность Т
(С)
Тd
(С)
f
(%)
Тe
(С)
Тes
(С)
Комфортность P
(гПа)
Po
(гПа)
Тmin
(С)
Tmax
(С)
R
(мм)
R24
(мм)
S
(см)
12 16.07 штиль 0 н/о н/о +16.1 +15.6 97 +16 1017.0 1010.7
15 16.07 штиль 0 н/о н/о +16.1 +15.8 98 +16 1017.0 1010.7
18 16.07 В 1 н/о н/о +16.1 +15.8 98 +17 1015.6 1009.3
21 16.07 З 1 н/о н/о +16.2 +15.9 98 +17 +17 1013.3 1008.4 +16.0
00 17.07 З 1 н/о н/о +17.1 +16.5 96 +18 1015.6 1009.3
03 17.07 Ю 5 н/о н/о +17.6 +17.0 96 +17 1014.2 1008.0
06 17.07 З 4 н/о н/о +18.0 +17.4 96 +18 1014.2 1008.0
09 17.07 З 5 н/о н/о +18.6 +17.8 95 +19 +19 1010.5 1005.7 +18.8
12 17.07 ЮЗ 2 н/о н/о +18.0 +17.5 97 +19 1012.9 1006.7
15 17.07 З 3 н/о н/о +17.7 +17.5 99 +18 1012.9 1006.7
18 17.07 З 5 н/о н/о +17.6 +17.4 99 +17 1011.5 1005.3
21 17.07 З 5 н/о н/о +18.4 +18.2 99 +19 +19 1010.1 1005.3 +17.3
00 18.07 З 5 н/о н/о +18.5 +18.3 99 +19 1011.5 1005.3
03 18.07 З 5 н/о н/о +20.2 +19.4 95 +24 1011.5 1005.3
06 18.07 З 3 н/о н/о +19.4 +19.1 98 +22 1010.2 1004.0
09 18.07 З 5 н/о н/о +18.9 +18.7 99 +20 +20 1010.2 1004.0 +20.9 2
12 18.07 ЮЗ 1 н/о н/о +17.9 +17.6 98 +19 1010.2 1004.0
15 18.07 З 6 н/о н/о +18.7 +18.5 99 +19 1010.2 1004.0
18 18.07 З 4 н/о н/о +19.2 +19.0 99 +21 1010.2 1004.0
21 18.07 З 5 н/о н/о +18.9 +18.7 99 +20 +20 1008.3 1003.5 +17.4
00 19.07 З 5 н/о н/о +18.5 +18.3 99 +19 1011.5 1005.3
03 19.07 З 6 н/о н/о +20.6 +19.8 95 +25 1011.5 1005.3
06 19.07 З 6 н/о н/о +19.4 +19.1 98 +21 1010.2 1004.0
09 19.07 З 6 н/о н/о +19.5 +19.3 99 +22 +22 комфорт 1010.2 1004.0 +20.9
12 19.07 З 6 н/о н/о +19.2 +19.0 99 +21 1012.9 1006.7
15 19.07 З 4 н/о н/о +19.9 +19.6 98 +23 1012.9 1006.7
18 19.07 СВ 1 н/о н/о +18.7 +18.5 99 +21 1012.9 1006.7
21 19.07 В 2 н/о н/о +18.8 +18.6 99 +21 +21 комфорт 1011.5 1006.7 +17.9
00 20.07 Ю 2 н/о н/о +19.6 +18.9 96 +23 1014.2 1008.0
03 20.07 В 2 н/о н/о +20.1 +18.8 92 +24 1015.5 1009.3
06 20.07 В 3 н/о н/о +19.1 +18.8 98 +21 1014.2 1008.0
09 20.07 В 3 н/о н/о +19.9 +19.7 99 +24 +24 комфорт 1012.9 1006.7 +21.6 3
12 20.07 В 3 н/о н/о +19.6 +19.4 99 +23 1014.2 1008.0
15 20.07 В 3 н/о н/о +19.3 +19.1 99 +22 1014.2 1008.0
18 20.07 В 4 н/о н/о +18.8 +18.6 99 +20 1012.9 1006.7
21 20.07 В 3 н/о н/о +19.3 +19.1 99 +22 +22 комфорт 1009.9 1005.0 +18.1 0.5
00 21.07 В 6-10
{12}
н/о н/о +18.9 +18.6 98 +20 +20 1009.5 1004.7
03 21.07 В 7 н/о н/о +17.6 +17.4 99 +17 1011.5 1005.3
06 21.07 В 7 н/о н/о +17.4 +17.2 99 +16 1008.9 1002.7
09 21.07 В 10-14
{15}
н/о н/о +17.3 +17.1 99 +16 +16 1006.2 1000.0 +20.0 12
12 21.07 В 11-19
{19}
н/о н/о +17.1 +16.9 99 +15 +15 1001.8 997.0
15 21.07 В 10 н/о н/о +16.9 +16.7 99 +15 1000.9 994.7
18 21.07 В 4 н/о н/о +17.8 +17.6 99 +18 999.4 993.3
21 21.07 В 2 н/о н/о +17.8 +17.6 99 +18 +18 996.6 991.8 +16.7 14
00 22.07 З 2 н/о н/о +18.8 +18.5 98 +21 1000.8 994.7
03 22.07 СЗ 3 н/о н/о +19.3 +19.0 98 +22 1000.8 994.7
06 22.07 В 3 н/о н/о +18.9 +18.6 98 +21 1000.8 994.7
09 22.07 В 1 н/о н/о +18.7 +18.4 98 +21 +21 комфорт 999.8 995.0 +20.1 5
12 22.07 ЮВ 2 н/о н/о +18.7 +18.4 98 +20 1003.5 997.3
15 22.07 В 1 н/о н/о +18.3 +18.0 98 +20 1004.9 998.7
18 22.07 З 2 н/о н/о +17.6 +17.4 99 +18 1004.9 998.7
21 22.07 З 5 н/о н/о +18.4 +18.2 99 +19 +19 1002.5 997.7 +17.0 11
00 23.07 З 7 н/о н/о +19.6 +19.1 97 +22 1004.8 998.7
03 23.07 З 5 н/о н/о +21.6 +20.4 93 +27 1004.8 998.7
06 23.07 З 6 н/о н/о +22.6 +19.9 85 +29 1004.8 998.7

 

Местоположение метеостанции Гамов (Приморский край, Россия): широта 42.55 долгота 131.22 высота над уровнем моря 53 м.

В архиве по умолчанию представлена погода в Гамове за последнюю неделю. Архивные данные за месяц целиком и за предыдущие месяцы, начиная с января 2011 года, Вы можете получить, выбрав интересующий диапазон дат из раскрывающегося списка и нажав кнопку "Ввод!".


*Определитесь, кто Вы:
робот инопланетянин человек

Внимание! Время в таблицах - всемирное. Для получения местного времени необходимо прибавить поправку, которая равна 10 ч.

Смотрите также архив погоды в соседних городах и на ближайших метеорологических станциях:

Погода в Посьете (Приморский край, Россия) (36 км)
Погода в Сонбонге (КНДР) (72 км)
Погода в Барабаше (Приморский край, Россия) (74 км)
Погода на Мысе Назимова (Приморский край, Россия) (79 км)
Погода в Владивостоке (Приморский край, Россия) (84 км)
Погода в Находке (Приморский край, Россия) (132 км)
Погода в Многоудобном (Приморский край, Россия) (144 км)
Погода в Чхонджине (КНДР) (144 км)
Погода в Яньцзи (Гирин, Китай) (145 км)
Погода в Тимирязевском (Приморский край, Россия) (158 км)

Пояснения к столбцам:

Ветер - указаны скорость ветра в м/с - средняя за 10 мин, порывы в срок и между сроками (в фигурных скобках) и направление, откуда дует ветер: С - северный, СВ - северо-восточный, В - восточный, ЮВ - юго-восточный, Ю - южный, ЮЗ - юго-западный, З - западный, СЗ - северо-западный.
Видимость - горизонтальная дальность видимости в метрах или километрах. При видимости от 1 до 10 км при отсутствии осадков обычно наблюдается дымка, при ухудшении видимости до 1 км и менее - туман. В сухую погоду видимость может ухудшаться дымом, пылью или мглою.
Явления - указаны атмосферные явления, наблюдавшиеся в срок или в последний час перед сроком; фигурными скобками обозначены явления, наблюдавшиеся между сроками (за 1-3 часа до срока); квадратными скобками обозначены град или гололедные отложения с указанием их диаметра в мм.
Облачность - указаны через наклонную черту общая и нижняя облачность в баллах и высота нижней границы облаков в метрах; квадратными скобками обозначены формы облаков: Ci - перистые, Cs - перисто-слоистые, Cc - перисто-кучевые, Ac - высококучевые, As - высокослоистые, Sc - слоисто-кучевые, Ns - слоисто-дождевые, Cu - кучевые, Cb - кучево-дождевые. Подробнее классификацию облаков см. в Атласе облаков (PDF).
T - Температура воздуха - температура, измеренная на высоте 2 м над землей.
Td - Температура точки росы - температура, при понижении до которой содержащийся в воздухе водяной пар достигнет насыщения.
f - Относительная влажность воздуха - влажноcть воздуха, измеренная на высоте 2 м над землей.
Te - Эффективная температура - температура, которую ощущает одетый по сезону человек в тени. Характеристика душности погоды. При расчете учитывается влияние влажности воздуха и скорости ветра на теплоощущения человека.
Tes - Эффективная температура на солнце - температура, которую ощущает человек, с поправкой на солнечный нагрев. Характеристика знойности погоды. Зависит от высоты солнца над горизонтом, облачности и скорости ветра. Ночью, в пасмурную погоду, а также при ветре 12 м/с и более поправка равна нулю.
P - Атмосферное давление - приведенное к уровню моря атмосферное давление.
Po - Атмосферное давление - измеренное на уровне метеостанции атмосферное давление.
Tmin - Минимальная температура - минимум температуры воздуха на высоте 2 м над землей.
Tmax - Максимальная температура - максимум температуры воздуха на высоте 2 м над землей.
R - Количество осадков - Количество выпавших осадков за период времени, мм. При наведении курсора мыши на число - период времени, за который выпало указанное количество осадков.
R24 - Количество осадков - Количество выпавших осадков за 24 часа, мм.
S - Снежный покров - Высота снежного покрова, см. При наведении курсора мыши на число - состояние снежного покрова и степень покрытия местности в баллах.